Regional Weather Roundup
Issued by NWS

Home | Current Version | Previous Version | Text Only | Print | Product List | Glossary On
Versions: 1 2 3 4 5 6 7 8 9 10 11 12 13 14 15 16 17 18 19 20 21 22 23 24 25 26 27 28 29 30 31 32 33 34 35 36 37 38 39 40 41 42 43 44 45 46 47 48 49 50
000
ASUS46 KSTO 240915
RWRCA

NORTHERN AND CENTRAL CA REGIONAL WEATHER ROUNDUP
NATIONAL WEATHER SERVICE SACRAMENTO CA
200 AM PDT SUN JUL 24 2016

NOTE: FAIR INDICATES FEW OR NO CLOUDS BELOW 12,000 FEET WITH NO
SIGNIFICANT WEATHER AND/OR OBSTRUCTIONS TO VISIBILITY.

CAZ001-003-241000-
NORTHWEST AREA

CITY           SKY/WX    TMP DP  RH WIND       PRES   REMARKS
CRESCENT CITY  CLEAR     54  52  93 SE3       29.99F
UKIAH          CLEAR     65  51  60 CALM      29.86F
$$

CAZ006-505>513-241000-
BAY AREA

CITY           SKY/WX    TMP DP  RH WIND       PRES   REMARKS
SANTA ROSA     CLEAR     57  50  77 S3        29.82F
SAN RAFAEL     N/A       63  MM  MM MISG
NAPA           CLEAR     60  56  86 CALM      29.84F
CONCORD        CLEAR     64  54  69 CALM      29.82S
OAKLAND CITY   N/A       60  MM  MM MISG
OAKLAND        CLEAR     57  53  86 N3        29.86F
SAN FRAN CITY  N/A       56  MM  79 MISG
SAN FRAN ARPT  CLEAR     57  50  77 W10       29.85F
LIVERMORE      CLEAR     64  49  57 NW3       29.83F
HAYWARD        CLEAR     61  50  67 CALM      29.85F
REDWOOD CITY   N/A       60  MM  73 MISG
MOFFETT ARPT   CLEAR     61  55  81 CALM      29.86F
SAN JOSE ARPT  CLEAR     61  54  77 CALM      29.85F
$$
CAZ034-037-514>518-241000-
CENTRAL COAST

CITY           SKY/WX    TMP DP  RH WIND       PRES   REMARKS
WATSONVILLE    CLEAR     53  51  93 W3        29.87S
SALINAS        MOCLDY    56  51  84 W7        29.87F
MONTEREY       CLOUDY    55  52  89 S6        29.88F
SAN LUIS OBISP CLEAR     59  50  72 CALM      29.83F
SANTA MARIA    CLOUDY    53  51  93 MISG      29.84F
$$
CAZ015-016-241000-
NORTHERN SACRAMENTO VALLEY

CITY           SKY/WX    TMP DP  RH WIND       PRES   REMARKS
REDDING        CLEAR     79  43  27 CALM      29.80F
RED BLUFF      CLEAR     75  47  36 N5        29.80F
OROVILLE       CLEAR     79  54  41 E5        29.80F
$$
CAZ016>018-241000-
SOUTHERN SACRAMENTO VALLEY

CITY           SKY/WX    TMP DP  RH WIND       PRES   REMARKS
AUBURN         CLEAR     73  39  29 E5        29.89S
BEALE AFB      CLEAR     78  43  28 NE3       29.76F
LINCOLN        FAIR      72  41  33 CALM      29.77F
MARYSVILLE     CLEAR     73  45  36 NE3       29.78S
SAC INTL ARPT  CLEAR     74  52  46 S8        29.77S
MATHER AIRPORT NOT AVBL
DOWNTOWN SAC   N/A       73  MM  MM MISG
SAC EXEC ARPT  CLEAR     68  53  58 SE3       29.78F
VACAVILLE      CLEAR     72  53  51 CALM      29.78F
TRAVIS AFB     CLEAR     64  54  68 SW20      29.76F
$$
CAZ019>021-241000-
SAN JOAQUIN VALLEY

CITY           SKY/WX    TMP DP  RH WIND       PRES   REMARKS
STOCKTON       CLEAR     68  49  50 N6        29.78F
MODESTO        CLEAR     75  52  44 CALM      29.78S
MERCED         CLEAR     67  55  65 CALM      29.79S
FRESNO         CLEAR     76  54  46 E3        29.81F
HANFORD        CLEAR     67  61  81 S3        29.81F
BAKERSFIELD    CLEAR     81  39  22 E6        29.82F
$$
CAZ011-012-071-241000-
NORTHERN MOUNTAINS

CITY           SKY/WX    TMP DP  RH WIND       PRES   REMARKS
YREKA          CLEAR     63  41  44 N9        30.07S
MOUNT SHASTA   CLEAR     60  42  51 NW3       30.08F
ALTURAS        CLEAR     55  34  45 CALM      30.13S
$$
CAZ011-012-071-241000-
SIERRA NEVADA MTNS

CITY           SKY/WX    TMP DP  RH WIND       PRES   REMARKS
BLUE CANYON    CLEAR     72  33  24 CALM      30.14F
TRUCKEE        CLEAR     45  32  61 CALM      30.22S
TAHOE VLY ARPT CLEAR     47  32  56 CALM      30.22F
MAMMOTH LAKES    N/A     59  19  20 W8        30.29S
$$




USA.gov is the U.S. government's official web portal to all federal, state and local government web resources and services.